GW1454 Weather Reports


Display with metric or nautical units.
time (UTC)temp
F
wind
direction
speed
MPH
gust
MPH
rain 1hr
in
rain 24hr
in
rain mn
in
humidity
%
barometer
mb
20260906161602 79 243 0.0 3.0 0.00 0.29 0.01 79 1015.0
20260906161048 79 0 0.0 2.0 0.00 0.29 0.01 78 1015.0
20260906160545 80 153 1.0 3.0 0.00 0.29 0.01 77 1014.8
20260906160111 80 144 0.0 5.0 0.00 0.29 0.01 79 1014.9
20260906155546 80 0 1.0 5.0 0.00 0.29 0.01 78 1015.0
20260906155044 80 153 0.0 6.0 0.00 0.29 0.01 79 1014.9
20260906154600 80 284 1.0 6.0 0.00 0.29 0.01 77 1015.0
20260906154045 80 229 2.0 4.0 0.00 0.29 0.01 78 1014.9
20260906153544 79 161 1.0 6.0 0.00 0.29 0.01 79 1014.7
20260906153052 79 240 1.0 8.0 0.00 0.29 0.01 79 1015.0
20260906152546 79 0 3.0 10.0 0.00 0.29 0.01 78 1014.9
20260906152044 79 211 2.0 10.0 0.00 0.29 0.01 78 1014.8
20260906151606 79 187 1.0 5.0 0.00 0.29 0.01 79 1015.0
20260906151045 79 240 1.0 5.0 0.00 0.29 0.01 81 1014.9
20260906150545 78 58 1.0 5.0 0.00 0.29 0.01 81 1014.9
20260906150104 77 0 0.0 4.0 0.00 0.29 0.01 84 1014.9
20260906145544 77 286 0.0 3.0 0.00 0.29 0.01 83 1014.9
20260906145045 77 297 1.0 3.0 0.00 0.29 0.01 82 1015.0
20260906144552 77 309 0.0 1.0 0.00 0.29 0.01 81 1015.0
20260906144044 77 0 0.0 1.0 0.00 0.29 0.01 83 1015.1
20260906143545 77 0 0.0 2.0 0.00 0.29 0.01 82 1015.0
20260906143103 77 153 0.0 2.0 0.00 0.29 0.01 85 1014.9
20260906142544 76 0 0.0 2.0 0.00 0.29 0.01 83 1014.7
20260906142045 76 0 0.0 3.0 0.00 0.29 0.01 83 1014.7
20260906141558 77 54 0.0 3.0 0.00 0.29 0.01 82 1014.6
20260906141045 77 254 0.0 1.0 0.00 0.29 0.01 82 1014.6
20260906140547 77 0 0.0 2.0 0.00 0.29 0.01 83 1014.6
20260906140057 77 0 0.0 2.0 0.00 0.29 0.01 83 1014.6
20260906135544 77 0 0.0 7.0 0.00 0.29 0.01 84 1014.5
20260906135045 77 277 0.0 7.0 0.00 0.29 0.01 83 1014.5
20260906134603 76 0 1.0 7.0 0.00 0.29 0.01 84 1014.5
20260906134045 76 0 0.0 4.0 0.00 0.29 0.01 84 1014.5
20260906133544 76 155 0.0 5.0 0.00 0.29 0.01 84 1014.6
20260906133115 76 169 1.0 5.0 0.00 0.29 0.01 84 1014.5
20260906132545 76 140 1.0 4.0 0.00 0.29 0.01 83 1014.5
20260906132044 76 154 0.0 4.0 0.00 0.29 0.01 86 1014.5
20260906131551 76 180 1.0 3.0 0.00 0.29 0.01 85 1014.5
20260906131044 75 0 0.0 3.0 0.00 0.29 0.01 88 1014.6
20260906130544 74 0 0.0 3.0 0.00 0.29 0.01 88 1014.5
20260906130053 74 259 0.0 5.0 0.00 0.29 0.01 88 1014.3
20260906125545 74 128 1.0 5.0 0.00 0.29 0.01 88 1014.3
20260906125048 74 0 1.0 3.0 0.00 0.29 0.01 89 1014.2
20260906124607 74 0 1.0 3.0 0.00 0.29 0.01 90 1014.3
20260906124044 73 281 0.0 0.0 0.00 0.29 0.01 91 1014.4
20260906123549 73 0 0.0 5.0 0.00 0.29 0.01 91 1014.5
20260906123056 73 153 0.0 5.0 0.00 0.29 0.01 92 1014.5
20260906122544 73 0 0.0 5.0 0.00 0.29 0.01 93 1014.5
20260906122046 73 225 1.0 3.0 0.00 0.29 0.01 93 1014.4
20260906121554 72 171 0.0 3.0 0.00 0.29 0.01 94 1014.3
20260906121044 72 142 1.0 3.0 0.00 0.29 0.01 95 1014.3
20260906120544 72 129 0.0 3.0 0.00 0.29 0.01 96 1014.3
20260906120055 72 0 0.0 1.0 0.00 0.29 0.01 97 1014.1
20260906115545 71 0 0.0 2.0 0.00 0.29 0.01 97 1014.2
20260906115046 71 188 0.0 2.0 0.00 0.29 0.01 97 1014.1
20260906114609 71 0 0.0 0.0 0.00 0.29 0.01 97 1014.0
20260906114044 71 0 0.0 4.0 0.00 0.29 0.01 97 1014.0
20260906113546 71 0 0.0 4.0 0.00 0.29 0.01 97 1013.9
20260906113058 71 154 0.0 1.0 0.00 0.29 0.01 97 1013.7
20260906112544 71 0 0.0 0.0 0.00 0.29 0.01 97 1013.7
20260906112045 71 0 0.0 0.0 0.00 0.29 0.01 97 1013.6
20260906111558 71 0 0.0 0.0 0.00 0.29 0.01 97 1013.8
20260906111045 71 0 0.0 0.0 0.00 0.29 0.01 97 1013.8
20260906110546 71 0 0.0 0.0 0.00 0.29 0.01 97 1013.8
20260906110052 71 0 0.0 0.0 0.00 0.29 0.01 97 1013.7
20260906105546 71 0 0.0 0.0 0.00 0.29 0.01 97 1013.5
20260906105046 71 0 0.0 0.0 0.00 0.29 0.01 97 1013.4
20260906104629 71 0 0.0 0.0 0.00 0.29 0.01 97 1013.4
20260906104045 71 0 0.0 0.0 0.00 0.29 0.01 97 1013.4
20260906103547 71 0 0.0 0.0 0.00 0.29 0.01 97 1013.4
20260906103055 71 0 0.0 3.0 0.00 0.29 0.01 98 1013.5
20260906102546 71 0 0.0 3.0 0.00 0.29 0.01 98 1013.3
20260906102044 71 159 0.0 2.0 0.00 0.29 0.01 98 1013.2
20260906101553 71 256 0.0 0.0 0.00 0.29 0.01 97 1013.3
20260906101045 70 0 0.0 0.0 0.00 0.29 0.01 97 1013.2
20260906100545 70 0 0.0 0.0 0.00 0.29 0.01 97 1013.0
20260906100105 70 0 0.0 0.0 0.00 0.29 0.01 98 1013.0
20260906095545 71 0 0.0 0.0 0.00 0.29 0.01 98 1012.9
20260906095046 70 0 0.0 0.0 0.00 0.29 0.01 98 1012.9
20260906094558 70 0 0.0 1.0 0.00 0.29 0.01 98 1012.9
20260906094045 70 0 0.0 1.0 0.00 0.29 0.01 98 1012.9
20260906093546 70 0 0.0 4.0 0.00 0.29 0.01 98 1012.8
20260906093113 70 0 0.0 4.0 0.00 0.29 0.01 98 1012.8
20260906092545 70 0 0.0 5.0 0.00 0.29 0.01 98 1012.8
20260906092046 70 0 1.0 5.0 0.00 0.29 0.01 98 1012.7
20260906091606 69 196 0.0 1.0 0.00 0.29 0.01 98 1012.6
20260906091045 69 0 0.0 0.0 0.00 0.29 0.01 98 1012.5
20260906090545 69 0 0.0 0.0 0.00 0.29 0.01 97 1012.5
20260906085543 68 0 0.0 0.0 0.00 0.29 0.01 97 1012.3
20260906085050 68 0 0.0 0.0 0.00 0.29 0.01 97 1012.3
20260906084605 68 0 0.0 0.0 0.00 0.29 0.01 97 1012.1
20260906084045 68 0 0.0 0.0 0.01 0.29 0.01 97 1012.3
20260906083546 68 0 0.0 0.0 0.01 0.29 0.01 97 1012.3
20260906083104 68 0 0.0 0.0 0.01 0.29 0.01 97 1012.3
20260906082544 68 0 0.0 0.0 0.01 0.29 0.01 97 1012.1
20260906082045 68 0 0.0 0.0 0.01 0.29 0.01 97 1012.2
20260906081604 68 0 0.0 0.0 0.01 0.29 0.01 97 1012.2
20260906081045 68 0 0.0 0.0 0.01 0.29 0.01 97 1012.0
20260906080547 68 0 0.0 0.0 0.01 0.29 0.01 96 1011.9
20260906080109 68 0 0.0 0.0 0.01 0.29 0.01 97 1011.9
20260906075545 68 0 0.0 0.0 0.01 0.29 0.01 97 1011.8
20260906075045 68 0 0.0 0.0 0.01 0.29 0.01 97 1011.8
20260906074606 68 0 0.0 0.0 0.01 0.29 0.01 97 1011.9
20260906074044 68 0 0.0 0.0 0.00 0.28 0.00 96 1011.8
20260906073547 68 0 0.0 0.0 0.00 0.28 0.00 96 1011.9
20260906073105 68 0 0.0 0.0 0.00 0.28 0.00 96 1011.9
20260906072545 68 0 0.0 0.0 0.00 0.28 0.00 96 1012.0
20260906072044 68 0 0.0 0.0 0.00 0.28 0.00 96 1011.9
20260906071606 68 0 0.0 0.0 0.00 0.28 0.00 96 1012.1
20260906071045 68 0 0.0 0.0 0.00 0.28 0.00 96 1012.1
20260906070547 69 0 0.0 0.0 0.00 0.28 0.00 96 1012.2
20260906070110 68 0 0.0 0.0 0.00 0.28 0.00 96 1012.2
20260906065545 68 0 0.0 0.0 0.00 0.28 0.00 96 1012.3
20260906065045 69 0 0.0 0.0 0.00 0.28 0.00 96 1012.3
20260906064606 69 0 0.0 0.0 0.00 0.28 0.00 96 1012.3
20260906064044 69 0 0.0 0.0 0.00 0.28 0.00 96 1012.3
20260906063546 69 0 0.0 0.0 0.00 0.28 0.00 96 1012.3
20260906063110 69 0 0.0 0.0 0.00 0.28 0.00 96 1012.3
20260906062544 69 0 0.0 0.0 0.00 0.28 0.00 96 1012.3
20260906062044 69 0 0.0 0.0 0.00 0.28 0.00 96 1012.3
20260906061606 69 0 0.0 0.0 0.00 0.28 0.00 96 1012.4
20260906061045 69 0 0.0 0.0 0.00 0.28 0.00 96 1012.3
20260906060547 69 0 0.0 0.0 0.00 0.28 0.00 96 1012.3
20260906060105 69 0 0.0 0.0 0.00 0.28 0.00 96 1012.4
20260906055545 69 0 0.0 0.0 0.00 0.28 0.00 96 1012.5
20260906055045 69 0 0.0 0.0 0.00 0.28 0.00 96 1012.6
20260906054606 69 0 0.0 0.0 0.00 0.28 0.00 96 1012.4
20260906054046 69 0 0.0 0.0 0.00 0.28 0.00 96 1012.5
20260906053545 69 0 0.0 0.0 0.00 0.28 0.00 95 1012.5
20260906053056 69 0 0.0 0.0 0.00 0.28 0.00 95 1012.4
20260906052546 70 0 0.0 0.0 0.00 0.28 0.00 95 1012.5
20260906052046 70 0 0.0 0.0 0.00 0.28 0.00 96 1012.5
20260906051553 70 0 0.0 0.0 0.00 0.28 0.00 95 1012.6
20260906051047 70 0 0.0 0.0 0.00 0.28 0.00 95 1012.7
20260906050548 70 0 0.0 0.0 0.00 0.28 0.00 95 1012.6
20260906050123 70 0 0.0 0.0 0.00 0.28 0.00 95 1012.6
20260906045545 70 0 0.0 0.0 0.00 0.28 0.00 95 1012.8
20260906045045 70 0 0.0 0.0 0.00 0.28 0.00 95 1012.6
20260906044555 70 0 0.0 0.0 0.00 0.28 0.00 95 1012.7
20260906044045 70 0 0.0 0.0 0.00 0.28 0.00 95 1012.8
20260906043544 70 0 0.0 0.0 0.00 0.28 0.00 95 1012.9
20260906043056 70 0 0.0 0.0 0.00 0.28 0.00 95 1012.9
20260906042545 70 0 0.0 0.0 0.00 0.28 0.00 95 1013.0
20260906042046 70 0 0.0 0.0 0.00 0.28 0.00 95 1013.2
20260906041604 71 0 0.0 0.0 0.00 0.28 0.00 95 1013.1
20260906041046 71 0 0.0 0.0 0.00 0.28 0.00 95 1013.1
20260906040545 71 0 0.0 0.0 0.00 0.28 0.00 95 1013.0
20260906040128 71 0 0.0 3.0 0.00 0.28 0.00 95 1013.0
20260906035546 71 0 0.0 3.0 0.00 0.28 0.28 95 1013.1
20260906035046 71 0 0.0 4.0 0.00 0.28 0.28 96 1013.2
20260906034555 71 0 0.0 4.0 0.00 0.28 0.28 96 1013.2
20260906034046 71 0 1.0 4.0 0.00 0.28 0.28 96 1013.1
20260906033545 70 0 0.0 0.0 0.00 0.28 0.28 96 1013.0
20260906033105 70 0 0.0 0.0 0.00 0.28 0.28 96 1013.0
20260906032549 70 0 0.0 0.0 0.00 0.28 0.28 96 1012.9
20260906032045 70 0 0.0 0.0 0.00 0.28 0.28 96 1012.9
20260906031602 70 0 0.0 0.0 0.00 0.28 0.28 96 1012.9
20260906031045 70 0 0.0 0.0 0.00 0.28 0.28 96 1012.8
20260906030545 70 0 0.0 0.0 0.00 0.28 0.28 96 1012.9
20260906030059 70 0 0.0 0.0 0.00 0.28 0.28 96 1012.8
20260906025546 70 0 0.0 0.0 0.00 0.28 0.28 96 1012.7
20260906025046 70 0 0.0 0.0 0.00 0.28 0.28 96 1012.8
20260906024618 70 0 0.0 0.0 0.00 0.28 0.28 95 1012.8
20260906024046 70 0 0.0 0.0 0.00 0.28 0.28 95 1012.7
20260906023546 70 0 0.0 0.0 0.00 0.28 0.28 95 1012.6
20260906023104 70 0 0.0 0.0 0.00 0.28 0.28 95 1012.5
20260906022545 70 0 0.0 0.0 0.00 0.28 0.28 95 1012.7
20260906022045 70 0 0.0 0.0 0.00 0.28 0.28 95 1012.5
20260906021603 70 0 0.0 0.0 0.00 0.28 0.28 95 1012.4
20260906021045 70 0 0.0 0.0 0.00 0.28 0.28 95 1012.6
20260906020548 70 0 0.0 0.0 0.00 0.28 0.28 95 1012.7
20260906020105 70 0 0.0 0.0 0.00 0.28 0.28 95 1012.7
20260906015545 71 0 0.0 0.0 0.00 0.28 0.28 95 1012.7
20260906015046 71 0 0.0 0.0 0.00 0.28 0.28 94 1012.5
20260906014611 71 0 0.0 0.0 0.00 0.28 0.28 95 1012.5
20260906014045 71 0 0.0 0.0 0.00 0.28 0.28 94 1012.5
20260906013545 71 0 0.0 0.0 0.00 0.28 0.28 94 1012.5
20260906013105 71 0 0.0 0.0 0.00 0.28 0.28 94 1012.5
20260906012547 71 0 0.0 0.0 0.00 0.28 0.28 94 1012.4
20260906012044 71 0 0.0 0.0 0.00 0.28 0.28 94 1012.2
20260906011602 71 0 0.0 0.0 0.00 0.28 0.28 93 1012.1
20260906011045 71 0 0.0 0.0 0.00 0.28 0.28 93 1012.3
20260906010545 71 0 0.0 0.0 0.00 0.28 0.28 93 1012.3
20260906010054 71 0 0.0 0.0 0.00 0.28 0.28 93 1012.3
20260906005546 71 0 0.0 0.0 0.00 0.28 0.28 93 1012.3
20260906005045 71 0 0.0 0.0 0.00 0.28 0.28 93 1012.3
20260906004601 71 0 0.0 0.0 0.00 0.28 0.28 92 1012.2
20260906004045 71 0 0.0 0.0 0.00 0.28 0.28 92 1012.2
20260906003545 71 0 0.0 0.0 0.00 0.28 0.28 92 1012.0
20260906003105 72 0 0.0 0.0 0.00 0.28 0.28 92 1012.1
20260906002546 72 0 0.0 0.0 0.00 0.28 0.28 91 1012.1
20260906002047 72 0 0.0 0.0 0.00 0.28 0.28 91 1012.1
20260906001553 72 0 0.0 0.0 0.00 0.28 0.28 91 1012.0
20260906001046 73 0 0.0 0.0 0.00 0.28 0.28 91 1012.0
20260906000545 73 0 0.0 0.0 0.00 0.28 0.28 90 1011.9
20260905235549 73 0 0.0 0.0 0.00 0.28 0.28 90 1011.9
20260905235045 73 0 0.0 0.0 0.00 0.28 0.28 90 1011.7
20260905234612 74 0 0.0 0.0 0.00 0.28 0.28 89 1011.7
20260905234048 74 0 0.0 0.0 0.00 0.28 0.28 89 1011.5
20260905233546 74 0 0.0 1.0 0.00 0.28 0.28 87 1011.3
20260905233054 74 0 0.0 1.0 0.00 0.28 0.28 88 1011.5
20260905232545 75 0 0.0 1.0 0.00 0.28 0.28 87 1011.4
20260905232046 75 0 0.0 2.0 0.00 0.28 0.28 87 1011.4
20260905231557 75 0 0.0 2.0 0.00 0.28 0.28 86 1011.3
20260905231045 76 0 0.0 1.0 0.00 0.28 0.28 86 1011.3
20260905230545 76 0 0.0 2.0 0.00 0.28 0.28 85 1011.2
20260905230130 77 0 0.0 2.0 0.00 0.28 0.28 84 1011.2
20260905225547 77 0 0.0 1.0 0.00 0.28 0.28 83 1011.3
20260905225045 77 0 0.0 2.0 0.00 0.28 0.28 82 1011.5
20260905224556 77 0 0.0 2.0 0.00 0.28 0.28 82 1011.5
20260905224046 78 0 0.0 2.0 0.00 0.28 0.28 81 1011.5
20260905223545 78 0 0.0 2.0 0.00 0.28 0.28 79 1011.5
20260905223109 78 0 0.0 2.0 0.00 0.28 0.28 79 1011.6
20260905222546 79 104 0.0 2.0 0.00 0.28 0.28 80 1011.6
20260905222045 78 0 0.0 2.0 0.00 0.28 0.28 80 1011.6
20260905221556 78 140 0.0 2.0 0.00 0.28 0.28 81 1011.8
20260905221048 78 0 0.0 2.0 0.00 0.28 0.28 81 1011.7
20260905220545 77 145 0.0 2.0 0.00 0.28 0.28 82 1012.0
20260905220052 76 0 0.0 2.0 0.00 0.28 0.28 83 1012.0
20260905215545 76 145 1.0 3.0 0.00 0.28 0.28 82 1011.9
20260905215047 77 142 1.0 3.0 0.00 0.28 0.28 83 1012.0
20260905214559 77 126 0.0 2.0 0.00 0.28 0.28 85 1012.0
20260905214045 76 0 0.0 2.0 0.00 0.28 0.28 86 1012.0
20260905213546 76 0 0.0 1.0 0.00 0.28 0.28 86 1012.0
20260905213103 76 0 0.0 1.0 0.00 0.28 0.28 86 1012.0
20260905212545 76 0 0.0 1.0 0.00 0.28 0.28 87 1012.2
20260905212045 76 0 0.0 2.0 0.00 0.28 0.28 86 1012.1
20260905211605 76 110 0.0 3.0 0.00 0.28 0.28 86 1012.3
20260905211045 76 0 0.0 5.0 0.00 0.28 0.28 85 1012.1
20260905210545 77 0 2.0 5.0 0.00 0.28 0.28 84 1012.4
20260905210058 77 66 1.0 5.0 0.00 0.28 0.28 86 1012.4
20260905205545 77 82 1.0 5.0 0.00 0.28 0.28 85 1012.5
20260905205046 76 69 1.0 5.0 0.00 0.28 0.28 89 1012.3
20260905204605 75 76 0.0 6.0 0.00 0.28 0.28 90 1012.3
20260905204045 75 133 2.0 6.0 0.00 0.28 0.28 92 1012.1
20260905203548 74 0 0.0 4.0 0.00 0.28 0.28 94 1012.0
20260905203102 74 0 0.0 0.0 0.00 0.28 0.28 94 1011.6
20260905202545 73 0 0.0 2.0 0.00 0.28 0.28 95 1011.4
20260905202046 73 0 0.0 2.0 0.00 0.28 0.28 95 1011.2
20260905201555 73 217 0.0 2.0 0.00 0.28 0.28 94 1011.3
20260905201046 73 0 0.0 1.0 0.00 0.28 0.28 95 1011.7
20260905200545 72 0 0.0 1.0 0.00 0.28 0.28 95 1011.9
20260905200109 72 113 0.0 1.0 0.00 0.28 0.28 95 1011.9
20260905195546 72 0 0.0 0.0 0.00 0.28 0.28 95 1012.2
20260905195049 72 0 0.0 0.0 0.00 0.28 0.28 95 1012.5
20260905194602 71 0 0.0 0.0 0.00 0.28 0.28 95 1012.3
20260905194045 71 0 0.0 0.0 0.00 0.28 0.28 95 1012.4
20260905193544 71 0 0.0 0.0 0.05 0.28 0.28 94 1012.6
20260905193114 71 0 0.0 1.0 0.28 0.28 0.28 94 1012.5
20260905192547 71 0 0.0 2.0 0.28 0.28 0.28 93 1012.3
20260905192048 71 159 1.0 2.0 0.28 0.28 0.28 93 1012.4
20260905191605 71 0 1.0 4.0 0.28 0.28 0.28 93 1012.1
20260905191045 71 23 0.0 4.0 0.28 0.28 0.28 93 1012.1
20260905190546 71 277 2.0 3.0 0.28 0.28 0.28 93 1012.0
20260905185546 71 0 0.0 3.0 0.28 0.28 0.28 90 1011.5
20260905185045 71 110 0.0 4.0 0.28 0.28 0.28 89 1011.8
20260905184604 72 0 1.0 12.0 0.28 0.28 0.28 86 1012.3
20260905184045 74 96 2.0 22.0 0.28 0.28 0.28 83 1012.2
20260905183546 78 284 6.0 24.0 0.21 0.21 0.21 77 1012.9
20260905183058 87 133 7.0 24.0 0.00 0.00 0.00 65 1012.8
20260905182545 89 0 0.0 1.0 0.00 0.00 0.00 66 1011.6
20260905182046 90 0 0.0 2.0 0.00 0.00 0.00 65 1011.5
20260905181552 91 0 0.0 3.0 0.00 0.00 0.00 62 1011.8
20260905181050 91 0 0.0 4.0 0.00 0.00 0.00 59 1011.7
20260905180546 92 167 0.0 6.0 0.00 0.00 0.00 59 1011.8
20260905175545 94 94 2.0 8.0 0.00 0.00 0.00 56 1012.3
20260905175045 94 51 1.0 8.0 0.00 0.00 0.00 56 1012.2
20260905174605 94 157 1.0 4.0 0.00 0.00 0.00 57 1012.1
20260905174046 93 0 1.0 7.0 0.00 0.00 0.00 57 1012.1
20260905173546 94 136 1.0 7.0 0.00 0.00 0.00 56 1012.2
20260905173105 94 102 1.0 8.0 0.00 0.00 0.00 56 1012.4
20260905172555 94 179 3.0 8.0 0.00 0.00 0.00 55 1012.6
20260905172046 93 142 0.0 8.0 0.00 0.00 0.00 58 1012.8
20260905171554 93 73 3.0 8.0 0.00 0.00 0.00 57 1012.8
20260905171045 92 0 3.0 8.0 0.00 0.00 0.00 58 1013.0
20260905170545 92 120 4.0 8.0 0.00 0.00 0.00 58 1013.1
20260905165546 92 67 2.0 8.0 0.00 0.00 0.00 59 1013.2
20260905165045 91 132 3.0 8.0 0.00 0.00 0.00 61 1013.3
20260905164554 92 209 3.0 8.0 0.00 0.00 0.00 60 1013.2
20260905164046 92 119 3.0 8.0 0.00 0.00 0.00 59 1013.3
20260905163545 92 104 2.0 6.0 0.00 0.00 0.00 61 1013.2
20260905163056 92 124 2.0 6.0 0.00 0.00 0.00 60 1013.4
20260905162549 92 243 2.0 7.0 0.00 0.00 0.00 60 1013.4
20260905162047 92 0 2.0 7.0 0.00 0.00 0.00 61 1013.5